User: anonymous   Login
Location: B?lite?ti
(46.2833°N, 22.7333°E)
Time: 10:02:09
(UTC+00:00)
Language:

CZ-4C R/B - Orbit

View from above orbital plane
View from above orbital plane
View from above satellite
View from above satellite

Ground track
Ground track

The orbit data is extracted from the following two-line orbital elements,

1 36416U 10009D   21100.80370927 -.00000065  00000-0  20629-4 0  9995
2 36416  63.4189 121.3223 0524323 355.5309   4.1139 13.69590332555066
Epoch (UTC): 10 April 2021 19:17:20
Eccentricity: 0.0524323
inclination: 63.4189°
perigee height: 614 km
apogee height: 1388 km
right ascension of ascending node: 121.3223°
argument of perigee: 355.5309°
revolutions per day: 13.69590332
mean anomaly at epoch: 4.1139°
orbit number at epoch: 55506

The dashed part of the orbit path shows where the satellite is in the earth's shadow,  

DLR